Weather History for K8D3 - December, 2013

Change the Weather History Date:

Wednesday, December 18, 2013

  Actual Average Record
Temperature  
Mean Temperature 28 °F 16 °F  
Max Temperature 44 °F 25 °F 56 °F (1979)
Min Temperature 12 °F 7 °F -19 °F (1983)
Degree Days  
Heating Degree Days 37 49  
Month to date heating degree days 975 833  
Since 1 July heating degree days 2807 2684  
Cooling Degree Days 0 0  
Month to date cooling degree days 0 0  
Year to date cooling degree days 625 527  
Moisture  
Dew Point 21 °F    
Average Humidity 71    
Maximum Humidity 88    
Minimum Humidity 53    
Precipitation  
Precipitation 0.00 in 0.01 in 0.25 in (2002)
Month to date precipitation 0.68 0.23  
Year to date precipitation 28.11 22.17  
Snow  
Snow 0.00 in - - ()
Month to date snowfall 5.7  
Since 1 July snowfall 6.7  
Snow Depth 3.00 in    
Sea Level Pressure  
Sea Level Pressure 29.76 in    
Wind  
Wind Speed 12 mph (NW)    
Max Wind Speed 28 mph    
Max Gust Speed 36 mph    
T = Trace of Precipitation, MM = Missing Value Source: NWS Daily Summary

Daily Weather History Graph

Daily Weather History Graph

Search for Another Location

Airport or City:

Trip Planner

Search our weather history database for the weather conditions in past years. The results will help you decide how hot, cold, wet, or windy it might be!

Date:

Astronomy

Dec. 18, 2013 Rise Set
Actual Time 8:04 AM CST 4:45 PM CST
Civil Twilight 7:29 AM CST 5:19 PM CST
Nautical Twilight 6:51 AM CST 5:57 PM CST
Astronomical Twilight 6:15 AM CST 6:33 PM CST
Moon 6:22 PM CST (12/18) 8:40 AM CST (12/18)
Length of Visible Light 9h 50m
Length of Day
8h 41m
Full, 98% of the Moon is Illuminated
Dec 18
Full
Dec 25
Last Quarter
Jan 1
New
Jan 7
First Quarter
Jan 15
Full

Hourly Weather History & Observations

Time (CST) Temp. Windchill Dew Point Humidity Pressure Visibility Wind Dir Wind Speed Gust Speed Precip Events Conditions
12:56 AM 15.1 °F 2.5 °F 10.9 °F 84% 29.94 in - SSE 10.4 mph - N/A   Unknown
1:56 AM 19.0 °F 7.5 °F 14.0 °F 81% 29.88 in - SSE 10.4 mph - N/A   Unknown
2:56 AM 21.9 °F 9.2 °F 16.0 °F 78% 29.82 in - SSE 13.8 mph - N/A   Unknown
3:56 AM 21.0 °F 7.6 °F 15.1 °F 78% 29.78 in - South 15.0 mph - N/A   Unknown
4:56 AM 21.0 °F 9.9 °F 15.1 °F 78% 29.74 in - South 10.4 mph - N/A   Unknown
5:56 AM 30.9 °F 17.8 °F 19.9 °F 64% 29.67 in - SW 23.0 mph 34.5 mph N/A   Unknown
6:03 AM 30.2 °F 18.9 °F 19.4 °F 64% 29.60 in - WSW 16.1 mph 35.7 mph N/A   Unknown
6:56 AM 30.9 °F 22.8 °F 21.0 °F 67% 29.69 in - West 9.2 mph 18.4 mph N/A   Unknown
7:56 AM 30.0 °F - 21.0 °F 69% 29.70 in - Calm Calm - N/A   Unknown
8:56 AM 30.9 °F 26.2 °F 21.9 °F 69% 29.70 in - WNW 4.6 mph - N/A   Unknown
9:56 AM 34.0 °F 28.0 °F 23.0 °F 64% 29.68 in - NW 6.9 mph - N/A   Unknown
10:56 AM 37.0 °F 32.4 °F 26.1 °F 65% 29.67 in - Variable 5.8 mph - N/A   Unknown
11:56 AM 39.9 °F - 26.1 °F 58% 29.65 in - Calm Calm - N/A   Unknown
12:56 PM 42.1 °F 33.3 °F 27.0 °F 55% 29.64 in - WNW 19.6 mph - N/A   Unknown
1:56 PM 44.1 °F 36.8 °F 28.0 °F 53% 29.64 in - NW 16.1 mph - N/A   Unknown
2:56 PM 42.1 °F 40.2 °F 28.0 °F 58% 29.66 in - NNW 3.5 mph - N/A   Unknown
3:56 PM 41.0 °F - 28.0 °F 60% 29.68 in - Calm Calm - N/A   Unknown
4:56 PM 39.0 °F 31.8 °F 28.9 °F 67% 29.70 in - NNW 11.5 mph - N/A   Unknown
5:56 PM 36.0 °F 29.6 °F 28.9 °F 76% 29.71 in - NNW 8.1 mph - N/A   Unknown
6:56 PM 35.1 °F 25.5 °F 28.0 °F 76% 29.76 in - North 15.0 mph - N/A   Unknown
7:56 PM 28.9 °F 17.7 °F 24.1 °F 82% 29.83 in - North 15.0 mph - N/A   Unknown
8:56 PM 21.9 °F 5.5 °F 17.1 °F 82% 29.89 in - North 24.2 mph 28.8 mph N/A   Unknown
9:56 PM 18.0 °F 0.6 °F 14.0 °F 84% 29.96 in - North 23.0 mph - N/A   Unknown
10:56 PM 14.0 °F -3.9 °F 10.0 °F 84% 30.00 in - North 20.7 mph - N/A   Unknown
11:56 PM 12.0 °F -6.5 °F 7.0 °F 80% 30.02 in - North 20.7 mph 27.6 mph N/A   Unknown